Zurück zum Katalog

PSLV R/B

AktivSSO
NORAD 43620·ROCKET BODY·🇮🇳 India

Gestartet Sep 16, 2018 von Satish Dhawan Space Centre

Loading…

Nächste Überflüge (nächste 24 Stunden)

TLE

AktuellSource: Space-Track

Epoche: Sep 14, 2026, 11:22 UTC

1 43620U 18071C   26257.47424690  .00001336  00000-0  10973-3 0  9996
2 43620  97.4477  70.2440 0017271 181.3743 178.7437 15.00698908435811

Verfolge PSLV R/B in Echtzeit mit AllMySat

Download on the App Store